sat.trackr.live / text

‹ back to catalog

FM-6

NORAD 39360 · 2013-058A

PAYLOAD ACTIVE UNKNOWN

§ Identity

Operator
Country
US
Launch date
2013-10-25
Launch site
TYMSC
Launch vehicle
Mass (kg)
RCS (m²)
11.32

Purposes: comms

External: N2YO · Heavens-Above · Gunter

§ Orbital elements

Epoch: 2026-09-19T05:14:50.621280Z

Period
1,436.08 min
Inclination
0.0166°
Eccentricity
0.0001475
Mean motion
1.00272813 rev/d
Perigee alt
35,780.1 km
Apogee alt
35,792.5 km
Semi-major
42,164.4 km
B*
0.0000e+0
RAAN
37.9410°
Arg perigee
227.2047°
Mean anomaly
55.3493°
Rev number
4,701

§ Raw data

FM-61 39360U 13058A   26262.21864145 -.00000020  00000+0  00000+0 0  99982 39360   0.0166  37.9410 0001475 227.2047  55.3493  1.00272813 47016

JSON: /api/v1/satellites/39360 · /tle

For live sub-satellite position, see the globe view (requires WebGL).

§ Visibility from observer

Set your observer location to see the next 7 days of passes ≥ 10°. The values pass through the URL so the page stays shareable.

No JS? Fill the form by hand. The geolocation button needs JavaScript.